Tracking 28514 objects as of 24-Feb-2024
HD Live streaming from Space Station
objects crossing your sky now

ARIANE 1 R/B

Track ARIANE 1 R/B now!
10-day predictions


NORAD ID: 16615
Int'l Code: 1986-019C
Perigee: 782.2 km
Apogee: 799.4 km
Inclination: 98.3 °
Period: 100.5 minutes
Semi major axis: 7161 km
RCS: 7.0687 m2 (large)
Launch date: February 22, 1986
Source: France (FR)
Launch site: FRENCH GUIANA (FRGUI)

Note: This is a ROCKET BODY
Your satellite tracking list
Your tracking list is empty




NASA's NSSDC Master Catalog

Two Line Element Set (TLE):
1 16615U 86019C   24054.86118943  .00000345  00000-0  14256-3 0  9991
2 16615  98.2938  96.5866 0012015  24.6195 148.6442 14.32411688989054
Source of the keplerian elements: AFSPC